Location: Meanaryar
(48.4161°N, 4.7315°W)
Time: 15:53:18
(UTC+00:00)

ERS-1 Rocket - Pass Details

Date: 18 September 2020
Orbit: 753 x 757 km, 98.5° (Epoch: 28 October)

Event Time Altitude Azimuth Distance (km) Brightness Sun altitude
Exits shadow 20:57:23 31° 47° (NE) 1,325 4.1 -24.7°
Drops below altitude 10° 21:01:04 10° 3° (N) 2,296 5.8 -25.2°
Sets 21:03:34 0° 354° (N) 3,226 6.8 -25.6°
